Date,TemperatureHighF,TemperatureAvgF,TemperatureLowF,DewpointHighF,DewpointAvgF,DewpointLowF,HumidityHigh,HumidityAvg,HumidityLow,PressureMaxIn,PressureMinIn,WindSpeedMaxMPH,WindSpeedAvgMPH,GustSpeedMaxMPH,PrecipitationSumIn
2013-1-1,40.8,22.5,17.1,31.1,11.7,6.6,78,63,48,30.04,29.90,15,5,15,0.00
2013-1-2,28.8,23.5,18.0,20.4,16.3,10.8,79,74,67,30.04,29.94,14,6,14,0.00
2013-1-3,39.4,24.2,15.8,33.7,18.3,-49.4,84,78,68,30.03,29.91,18,10,18,0.00
2013-1-4,39.4,28.7,25.9,33.7,21.3,19.2,84,74,66,30.05,29.87,30,19,30,0.00
2013-1-5,35.4,28.9,27.0,31.6,21.9,19.5,93,75,67,30.14,29.87,20,15,20,0.00
2013-1-6,36.3,34.4,31.6,33.7,30.3,24.0,93,85,73,30.13,29.77,27,11,27,0.00
2013-1-7,37.2,31.5,27.0,26.1,23.0,19.9,76,71,60,30.22,29.99,37,13,37,0.00
2013-1-8,40.5,31.3,25.5,29.8,24.1,20.1,83,75,63,30.10,30.00,17,8,17,0.00
2013-1-9,46.2,38.4,29.7,34.7,29.1,24.3,85,70,48,30.29,29.88,45,16,45,1.12
2013-1-10,46.6,34.1,23.7,34.2,27.2,21.0,92,77,54,30.44,30.00,15,6,15,0.05
2013-1-11,56.8,45.6,36.3,53.8,43.0,32.8,99,91,78,30.01,29.61,26,12,26,0.43
2013-1-12,61.5,52.5,46.2,50.3,44.9,31.1,93,76,50,29.82,29.68,25,11,25,0.01
2013-1-13,45.9,36.5,28.0,38.9,35.8,25.8,99,97,68,29.92,29.68,25,8,25,0.56
2013-1-14,28.0,22.8,16.2,25.8,17.3,11.6,91,79,68,30.30,29.92,26,8,26,0.00
2013-1-15,31.3,21.5,10.8,23.3,15.9,7.9,92,80,65,30.31,30.07,11,2,11,0.00
2013-1-16,34.5,31.8,18.0,30.3,24.3,15.3,90,75,53,30.03,29.66,18,8,27,0.01
2013-1-17,35.1,22.6,9.5,23.0,12.6,2.9,83,66,46,30.28,30.01,9,3,16,0.00
2013-1-18,36.5,33.7,15.6,23.5,21.3,11.4,83,61,53,30.27,29.79,68,21,68,0.00
2013-1-19,47.5,41.6,36.5,36.1,31.1,23.5,76,66,58,29.79,29.43,37,20,37,0.02
2013-1-20,45.9,21.5,14.9,32.7,8.0,1.1,72,56,46,30.05,29.42,47,17,47,5.39
2013-1-21,17.6,12.2,2.1,9.2,2.0,-7.6,77,63,48,30.01,29.83,21,8,21,0.00
2013-1-22,11.8,4.2,-4.2,-0.7,-6.5,-14.8,71,61,49,30.13,29.97,20,7,20,0.00
2013-1-23,19.4,10.3,-1.3,10.0,1.9,-9.1,79,68,61,30.13,29.92,20,8,20,0.00
2013-1-24,33.8,11.5,5.5,15.2,0.8,-4.9,81,63,43,30.45,29.98,17,5,17,0.00
2013-1-25,25.9,18.1,10.9,15.6,9.8,0.5,81,70,62,30.35,29.86,15,6,15,0.00
2013-1-26,29.1,22.0,16.3,17.0,13.7,8.2,83,71,53,30.30,29.89,13,4,13,0.00
2013-1-27,31.1,24.7,16.9,28.2,16.2,9.7,89,71,56,30.32,29.97,17,8,17,0.00
2013-1-28,45.0,38.1,31.1,40.4,33.7,28.0,99,85,74,29.99,29.72,21,6,21,0.18
2013-1-29,58.6,48.0,33.3,58.4,43.3,25.2,99,84,64,29.89,29.31,33,12,33,0.34
2013-1-30,59.0,48.7,30.2,58.5,47.7,20.3,99,96,65,29.33,28.99,43,11,43,0.66
2013-1-31,44.2,23.7,15.6,37.5,16.9,8.6,87,75,44,29.75,29.15,36,18,36,1.10
2013-2-1,49.8,15.0,9.7,38.5,7.7,0.4,86,73,59,30.10,29.75,29,12,29,0.03
2013-2-2,25.2,16.3,5.9,19.6,11.1,0.8,84,80,69,30.04,29.83,24,10,24,0.00
2013-2-3,6.1,3.7,1.2,1.2,-0.8,-3.6,82,81,80,29.88,29.79,6,1,6,0.00
2013-6-4,72.3,65.5,58.5,49.8,45.9,44.2,63,50,43,30.09,30.06,13,4,13,0.00
2013-6-5,79.3,63.3,52.3,53.4,45.7,37.2,79,55,31,30.11,29.92,16,5,16,0.00
2013-6-6,70.3,61.2,56.7,57.5,51.5,44.9,82,70,61,29.94,29.79,20,9,20,0.01
2013-6-7,66.0,57.6,51.1,55.8,52.9,49.3,99,85,66,29.85,29.80,18,7,18,0.00
2013-6-8,83.8,66.6,54.0,59.5,55.7,52.0,99,72,42,29.99,29.83,8,2,8,0.00
2013-6-9,88.5,71.0,55.9,65.7,58.9,53.8,96,68,46,30.02,29.85,17,6,17,0.00
2013-6-10,83.7,69.0,61.2,76.2,65.9,54.8,99,91,62,29.87,29.65,13,4,13,0.54
2013-6-11,87.4,73.9,64.0,73.3,68.2,63.8,99,84,59,29.83,29.71,18,5,18,0.01
2013-6-12,81.0,71.9,62.4,74.1,68.3,62.1,99,89,72,29.85,29.72,18,3,18,0.00
2013-6-13,78.4,72.7,64.4,65.6,62.7,58.8,93,72,55,29.87,29.66,20,8,20,0.63
2013-6-14,78.6,66.9,56.8,63.3,58.3,53.1,99,76,50,30.02,29.87,16,6,16,0.00
2013-6-15,86.7,69.6,56.3,69.2,61.2,52.3,97,77,52,30.00,29.89,13,4,13,0.00
2013-8-5,79.4,75.7,65.7,67.5,65.6,60.0,85,71,67,29.89,29.88,6,1,6,0.00
2013-8-6,87.3,72.2,63.7,78.4,68.5,59.7,99,89,65,29.88,29.80,18,6,18,0.30
2013-8-7,89.1,75.3,64.8,78.1,71.7,64.5,99,90,64,29.85,29.74,22,8,22,0.21
2013-8-8,79.0,69.4,60.8,71.7,63.5,58.1,99,83,57,29.95,29.84,15,6,15,0.00
2013-8-9,86.5,71.4,54.5,69.7,62.1,54.2,99,76,46,29.94,29.87,17,4,17,0.00
2013-8-10,82.8,69.5,55.9,67.2,61.6,53.9,99,78,49,30.07,29.94,13,3,49,0.00
2013-8-11,86.5,72.4,61.9,69.0,63.4,60.5,99,76,48,30.05,29.96,15,3,15,0.00
2013-8-12,72.7,67.9,63.7,72.4,67.2,63.1,99,98,85,29.99,29.76,15,4,15,0.48
2013-8-13,71.2,61.4,54.1,65.7,54.0,47.3,99,78,51,29.99,29.78,21,8,21,0.01
2013-8-14,75.7,60.4,47.3,58.6,52.2,46.4,99,77,51,30.10,29.99,15,4,15,0.00
2013-8-15,82.2,64.0,46.6,65.3,55.8,46.3,99,78,48,30.09,30.00,17,4,17,0.00
2013-8-16,88.9,67.6,50.2,64.1,57.7,49.9,99,75,40,30.12,30.03,8,2,8,0.00
2013-8-17,88.9,70.0,51.4,70.3,59.3,51.2,99,73,41,30.19,30.10,10,2,10,0.00
2013-8-18,94.1,70.7,53.2,69.6,61.8,53.0,99,77,42,30.15,30.03,11,2,11,0.00
2013-8-19,90.0,72.5,55.6,70.3,62.8,55.3,99,75,44,30.05,29.95,16,4,16,0.00
2013-8-20,92.3,75.5,59.5,74.3,67.3,59.3,99,79,51,30.06,29.99,15,4,15,0.00
2013-8-21,93.7,78.5,65.7,76.9,70.5,65.4,99,79,54,30.04,29.91,20,7,20,0.00
2013-8-22,89.1,77.9,69.1,75.3,71.9,68.6,99,83,61,29.97,29.85,21,6,21,0.00
2013-8-23,83.3,70.2,57.7,70.4,62.2,57.5,99,78,48,30.14,29.97,15,4,15,0.00
2013-8-24,94.3,73.0,53.2,72.0,61.8,53.0,99,73,39,30.24,30.13,11,2,11,0.00
2013-8-25,92.3,75.9,60.1,73.5,66.9,59.8,99,76,53,30.21,29.86,20,8,20,0.00
2013-8-26,91.8,79.3,68.9,78.9,71.8,65.7,98,79,63,30.07,29.90,20,8,20,0.00
2013-8-27,92.7,78.4,71.2,84.2,77.0,70.2,99,96,77,29.94,29.67,20,5,20,0.08
2013-8-28,82.2,75.4,67.8,80.7,74.3,67.5,99,97,82,29.94,29.71,18,6,18,0.00
2013-8-29,88.9,75.6,65.3,79.6,71.5,64.8,99,88,64,30.01,29.92,10,3,10,0.00
2013-8-30,91.8,79.1,68.5,78.1,74.2,68.2,99,87,62,29.93,29.66,24,8,24,0.58
2013-8-31,83.1,73.4,66.6,76.3,71.2,66.1,99,93,75,29.80,29.69,13,4,13,0.00
2013-9-1,88.0,73.5,65.7,79.7,71.5,65.2,99,94,74,29.79,29.65,9,2,9,0.15
2013-9-2,77.9,68.7,59.7,71.1,64.1,54.9,99,86,64,29.86,29.66,17,5,17,0.01
2013-9-3,78.6,65.9,58.1,61.9,57.6,44.8,94,76,51,29.95,29.85,100,5,100,0.07
2013-9-4,84.4,69.0,54.1,69.9,62.6,53.9,99,82,57,30.01,29.93,20,7,20,0.00
2013-9-5,70.5,60.6,49.3,67.2,52.7,46.6,99,78,49,30.18,30.00,17,6,17,0.00
2013-9-6,83.8,64.0,45.9,61.6,54.3,35.7,99,75,44,30.19,29.98,24,4,24,0.00
2013-9-7,83.8,69.9,59.4,78.0,65.7,53.9,99,87,65,29.98,29.81,15,6,15,0.15
2013-9-8,77.0,69.3,56.3,70.4,63.1,52.3,99,82,57,30.02,29.85,20,7,20,0.00
2013-9-9,86.0,67.4,52.0,78.8,65.8,51.3,99,95,79,29.99,29.80,15,4,15,0.28
2013-9-10,97.3,83.7,72.0,79.7,74.8,70.4,99,78,49,29.92,29.78,24,10,24,0.04
2013-9-11,96.3,81.3,70.9,79.3,73.5,68.3,99,78,56,29.94,29.85,17,8,17,0.00
2013-9-12,79.5,68.3,55.6,70.2,62.8,49.7,99,85,49,29.91,29.79,20,6,20,0.25
2013-9-13,59.2,53.6,42.8,51.3,46.2,34.7,94,77,56,30.04,29.91,22,8,40,0.00
2013-9-14,74.1,55.1,37.4,54.8,44.8,37.1,99,73,37,30.10,29.98,15,4,15,0.00
2013-9-15,65.7,55.8,48.6,58.4,51.8,41.7,99,87,65,30.05,29.96,15,3,15,0.17
2013-9-16,62.1,54.9,45.0,55.7,50.9,42.3,99,88,60,30.29,30.04,20,7,20,0.00
2013-9-17,73.4,54.0,35.1,57.7,45.3,13.2,99,76,35,30.32,30.12,49,7,49,0.00
2013-9-18,84.0,63.3,40.1,64.1,54.0,18.2,99,75,33,30.12,29.93,24,5,24,0.00
2013-9-19,64.8,61.6,61.2,61.6,61.1,50.6,99,98,85,29.95,29.90,9,4,26,0.00
2013-9-20,61.3,61.3,61.3,61.1,61.1,61.1,99,99,99,29.92,29.92,4,4,4,0.00
2013-9-21,61.3,61.3,61.3,61.1,61.1,61.1,99,99,99,29.92,29.92,4,4,4,0.00
2013-10-31,50.2,47.4,42.6,36.3,33.8,31.0,74,60,52,29.96,29.91,8,4,14,0.00
2013-11-1,70.0,45.8,30.4,46.1,42.1,27.4,99,87,61,30.32,29.02,35,11,35,0.66
2013-11-2,46.4,43.5,36.0,46.1,42.4,34.4,99,96,86,30.00,29.54,21,8,21,0.21
2013-11-3,49.1,38.9,31.1,40.5,34.7,30.4,99,86,65,30.32,30.00,10,3,10,0.00
2013-11-4,55.6,42.3,32.9,37.8,33.2,27.6,96,73,43,30.34,30.16,21,9,21,0.09
2013-11-5,59.0,51.9,43.5,50.7,46.1,36.3,93,81,70,30.22,30.03,18,9,18,0.00
2013-11-6,56.7,52.7,42.8,56.4,50.1,41.9,99,91,71,30.03,29.65,30,15,49,0.22
2013-11-7,45.5,39.9,35.1,42.4,33.4,27.6,99,79,52,30.03,29.88,21,8,21,0.05
2013-11-8,47.8,36.8,29.5,34.6,28.7,24.9,95,74,49,30.16,29.99,15,6,15,0.00
2013-11-9,57.0,47.4,37.6,43.7,37.8,30.4,77,69,58,30.03,29.67,37,17,37,0.04
2013-11-10,50.7,42.8,34.9,37.5,32.1,27.3,82,66,51,30.15,29.78,25,9,25,0.00
2013-11-11,43.7,36.0,26.2,41.2,32.9,26.0,99,89,73,30.20,29.92,23,11,23,0.14
2013-11-12,35.8,27.3,19.8,26.4,21.1,14.3,99,79,56,30.42,30.20,17,6,17,0.00
2013-11-13,40.6,29.7,18.3,28.8,19.8,13.9,93,69,42,30.40,30.00,33,14,33,0.06
2013-11-14,50.4,37.1,31.6,30.2,22.3,19.3,61,55,45,30.02,29.85,29,18,29,0.08
2013-11-15,54.7,45.4,38.8,31.7,28.2,25.2,66,51,39,29.93,29.85,25,11,25,0.00
2013-11-16,57.2,48.5,37.0,56.7,43.8,28.8,99,84,66,29.96,29.64,29,13,29,0.04
2013-11-17,64.0,60.6,56.7,63.8,60.3,56.4,99,99,99,29.64,29.12,33,18,33,0.13
2013-11-20,48.9,41.1,29.7,38.0,29.0,22.4,98,64,39,30.30,30.10,20,9,20,0.00
2013-11-21,52.9,45.9,40.8,45.5,39.8,30.3,99,80,66,30.15,30.05,20,8,20,0.15
2013-11-22,45.9,38.7,26.4,45.4,36.4,23.9,99,92,73,30.25,30.02,24,6,24,0.06
2013-11-23,28.2,23.6,14.4,25.2,16.8,4.9,95,77,43,30.39,30.15,30,9,30,0.00
2013-11-24,27.3,18.6,12.4,16.7,12.0,9.2,91,76,55,30.45,30.25,18,7,18,0.00
2013-11-25,34.2,26.3,18.9,27.4,15.6,6.8,91,64,44,30.25,29.91,36,18,36,0.08
2013-11-26,34.2,31.2,27.9,30.5,28.7,24.0,96,91,84,29.95,29.81,20,9,20,0.00
2013-11-27,27.7,22.7,16.9,25.2,14.4,9.4,93,71,49,30.06,29.82,26,8,26,0.01
2013-11-28,29.8,23.0,14.5,25.0,17.3,9.9,89,79,63,30.28,30.06,16,4,16,0.01
2013-11-29,35.2,26.5,20.3,27.5,21.2,17.4,93,81,63,30.52,30.28,10,3,10,0.00
2013-11-30,46.4,35.8,25.5,32.0,26.9,19.9,83,71,57,30.39,29.95,23,11,23,0.00
2013-12-1,81.1,37.4,32.7,46.0,32.6,2.6,97,84,15,29.96,29.88,54,5,54,0.00
2013-12-2,43.0,33.9,29.3,33.8,27.3,21.2,96,78,53,29.89,29.76,13,3,13,0.00
2013-12-3,39.0,34.7,27.9,38.6,32.1,22.2,99,91,76,29.79,29.70,12,4,12,0.04
2013-12-4,58.5,47.6,37.8,58.0,46.4,37.5,99,96,82,29.76,29.47,24,8,24,0.09
2013-12-5,59.2,41.9,30.0,58.7,36.2,22.8,99,80,62,30.01,29.47,35,15,35,0.00
2013-12-6,30.0,24.8,18.5,23.4,16.3,10.5,76,70,63,30.28,30.01,14,5,14,0.00
2013-12-7,26.6,19.1,9.3,12.2,8.9,3.3,76,65,50,30.47,30.27,21,6,21,0.00
2013-12-8,27.1,14.1,9.3,25.1,8.7,3.3,92,79,73,30.45,29.84,12,2,12,0.00
2013-12-9,30.7,26.3,18.0,27.9,22.6,9.3,97,86,68,29.94,29.73,37,16,37,0.00
2013-12-10,21.4,17.3,9.7,17.6,10.2,3.5,85,74,50,30.03,29.78,34,13,35,0.00
2013-12-11,22.8,16.2,2.3,18.2,9.6,-4.1,87,75,59,30.30,30.02,18,8,18,0.00
2013-12-12,21.0,12.5,-0.9,15.4,5.7,-6.4,85,74,53,30.30,30.01,44,12,44,0.09
2013-12-13,30.2,24.1,21.0,23.4,18.5,15.4,85,79,71,30.15,29.99,20,8,20,0.00
2013-12-14,72.3,18.7,17.6,66.5,16.3,13.7,96,90,78,30.14,29.70,108,10,108,0.00
2013-12-15,25.5,18.6,10.6,24.3,16.1,5.9,98,90,79,29.89,29.67,23,8,23,0.00
2013-12-16,22.6,12.9,4.1,17.7,8.8,0.3,90,83,77,30.04,29.87,10,4,10,0.00
2013-12-17,29.7,22.8,14.2,28.0,20.9,11.3,96,92,88,29.88,29.72,24,9,24,0.00
2013-12-18,30.6,26.9,23.5,27.3,22.8,14.4,99,85,65,29.97,29.72,29,12,29,0.00
2013-12-19,43.2,35.2,29.1,36.9,30.2,19.2,99,82,65,29.86,29.70,23,8,23,0.00
2013-12-20,36.0,33.8,31.8,35.3,33.5,31.4,99,99,92,29.78,29.62,13,5,13,0.20
2013-12-21,33.4,32.6,31.8,31.4,28.6,26.5,92,85,77,29.75,29.57,0,0,0,0.00
2013-12-22,33.4,33.0,32.5,27.3,26.7,26.0,79,78,75,29.57,29.45,0,0,0,0.00
2013-12-23,29.3,20.9,10.9,21.0,12.2,2.1,88,69,59,30.32,30.06,3,0,0,0.00
2013-12-24,24.8,16.7,13.6,23.1,6.0,2.5,93,63,53,30.36,30.24,8,0,8,0.00
2013-12-31,16.0,15.4,13.8,12.5,11.2,9.9,86,83,79,30.18,30.12,7,3,10,0.00
2014-1-1,13.6,11.3,9.7,11.2,5.8,0.3,92,79,61,30.25,30.08,15,7,21,0.00
2014-1-2,17.8,10.2,2.1,11.1,7.5,-1.6,91,89,68,30.15,29.99,20,12,26,0.00